sampling_time,wmo_synop_id,msc_id,stn_nam,stn_elev,lat,long,stn_typ,date_tm,rpt_typ,result_time,crnt_buoy_lat,crnt_buoy_lat_qa_summary,crnt_buoy_long,crnt_buoy_long_qa_summary,avg_air_temp_pst10mts,avg_air_temp_pst10mts_qa_summary,avg_sea_sfc_temp_pst10mts,avg_sea_sfc_temp_pst10mts_qa_summary,avg_batry_volt_pst10mts,avg_batry_volt_pst10mts_qa_summary,avg_solr_panl_crnt_pst10mts,avg_solr_panl_crnt_pst10mts_qa_summary,avg_wtr_lvl_snsr_volt_pst10mts,avg_wtr_lvl_snsr_volt_pst10mts_qa_summary,avg_wave_hgt_pst20mts,avg_wave_hgt_pst20mts_qa_summary,pk_wave_hgt_pst20mts,pk_wave_hgt_pst20mts_qa_summary,sig_wave_pd_pst20mts,sig_wave_pd_pst20mts_qa_summary,sig_wave_hgt_pst20mts,sig_wave_hgt_pst20mts_qa_summary,avg_max_wave_hgt_pst20mts,avg_max_wave_hgt_pst20mts_qa_summary,avg_max_wave_pd_pst20mts,avg_max_wave_pd_pst20mts_qa_summary,avg_wave_pd_pst20mts,avg_wave_pd_pst20mts_qa_summary,pk_wave_pd_pst20mts,pk_wave_pd_pst20mts_qa_summary,avg_stn_pres_pst10mts,avg_stn_pres_pst10mts_qa_summary,avg_wnd_spd_pst10mts,avg_wnd_spd_pst10mts_qa_summary,avg_wnd_dir_pst10mts,avg_wnd_dir_pst10mts_qa_summary,max_avg_wnd_spd_pst10mts,max_avg_wnd_spd_pst10mts_qa_summary,wnd_snsr_vert_disp,wnd_snsr_vert_disp_qa_summary,pres_tend_char_pst3hrs,pres_tend_char_pst3hrs_data_flag,pres_tend_amt_pst3hrs,pres_tend_amt_pst3hrs_data_flag,avg_mslp_pst10mts,avg_mslp_pst10mts_data_flag,avg_stn_pres_pst10mts_1,avg_stn_pres_pst10mts_2,avg_wnd_spd_pst10mts_1,avg_wnd_spd_pst10mts_2,avg_wnd_dir_pst10mts_1,avg_wnd_dir_pst10mts_2,max_avg_wnd_spd_pst10mts_1,max_avg_wnd_spd_pst10mts_2,wnd_snsr_vert_disp_1,wnd_snsr_vert_disp_2
2020-10-23T00:00:00Z,44490,9300300,West Bay of Fundy,0.0,44.66056,-66.3686,18,2020-10-23T00:00:00.000Z,108,2020-10-23T00:04:49.011Z,44.6625,100,-66.3663,100,12.6,100,12.1,100,12.8,100,0.0,100,3.5,100,0.2,100,0.6,100,8.2,100,0.3,100,0.4,100,8.2,100,5.9,100,11.1,100,1026.0,100,9.7,100,17,100,11.2,100,5.0,100,0.0,1,1.5,1,1026.0,1,1026.0,1026.0,9.7,9.4,17,19,11.2,10.8,5.0,4.0
2020-10-23T00:10:00Z,44490,9300300,West Bay of Fundy,0.0,44.66056,-66.3686,18,2020-10-23T00:10:00.000Z,110,2020-10-23T00:13:34.799Z,44.66248,100,-66.36627,100,13.0,100,12.6,100,12.8,100,0.0,100,3.5,100,,-1,,-1,,-1,,-1,,-1,,-1,,-1,,-1,1026.1,100,10.4,100,14,100,11.5,100,5.0,100,1.0,1,1.5,1,1026.1,1,1026.1,1026.1,10.4,10.1,14,17,11.5,11.2,5.0,4.0
2020-10-23T00:20:00Z,44490,9300300,West Bay of Fundy,0.0,44.66056,-66.3686,18,2020-10-23T00:20:00.000Z,110,2020-10-23T00:23:33.531Z,44.66252,100,-66.36635,100,12.5,100,12.1,100,12.8,100,0.0,100,3.5,100,,-1,,-1,,-1,,-1,,-1,,-1,,-1,,-1,1026.2,100,13.0,100,10,100,14.8,100,5.0,100,1.0,1,1.7,1,1026.2,1,1026.2,1026.2,13.0,12.6,10,12,14.8,14.4,5.0,4.0
2020-10-23T00:30:00Z,44490,9300300,West Bay of Fundy,0.0,44.66056,-66.3686,18,2020-10-23T00:30:00.000Z,110,2020-10-23T00:32:34.236Z,44.66245,100,-66.36627,100,12.5,100,12.1,100,12.8,100,0.0,100,3.5,100,,-1,,-1,,-1,,-1,,-1,,-1,,-1,,-1,1026.3,100,15.8,100,12,100,20.2,100,5.0,100,1.0,1,1.8,1,1026.3,1,1026.3,1026.3,15.8,15.1,12,14,20.2,19.1,5.0,4.0
2020-10-23T00:40:00Z,44490,9300300,West Bay of Fundy,0.0,44.66056,-66.3686,18,2020-10-23T00:40:00.000Z,110,2020-10-23T00:42:48.947Z,44.66242,100,-66.36607,100,12.6,100,12.1,100,12.8,100,0.0,100,3.5,100,,-1,,-1,,-1,,-1,,-1,,-1,,-1,,-1,1026.4,100,19.1,100,13,100,22.0,100,5.0,100,1.0,1,1.8,1,1026.4,1,1026.4,1026.4,19.1,18.4,13,14,22.0,21.2,5.0,4.0
2020-10-23T00:50:00Z,44490,9300300,West Bay of Fundy,0.0,44.66056,-66.3686,18,2020-10-23T00:50:00.000Z,110,2020-10-23T00:52:45.438Z,44.66243,100,-66.36605,100,12.6,100,12.1,100,12.8,100,0.0,100,3.5,100,,-1,,-1,,-1,,-1,,-1,,-1,,-1,,-1,1026.6,100,18.0,100,17,100,21.2,100,5.0,100,1.0,1,1.8,1,1026.6,1,1026.6,1026.5,18.0,17.3,17,20,21.2,20.2,5.0,4.0
2020-10-23T01:00:00Z,44490,9300300,West Bay of Fundy,0.0,44.66056,-66.3686,18,2020-10-23T01:00:00.000Z,108,2020-10-23T01:03:19.040Z,44.66243,100,-66.3661,100,12.5,100,12.1,100,12.8,100,0.0,100,3.5,100,0.2,100,0.6,100,9.2,100,0.4,100,0.5,100,9.7,100,6.4,100,10.5,100,1026.7,100,19.8,100,15,100,23.8,100,5.0,100,1.0,1,1.8,1,1026.7,1,1026.7,1026.7,19.8,19.1,15,17,23.8,22.7,5.0,4.0
2020-10-23T01:10:00Z,44490,9300300,West Bay of Fundy,0.0,44.66056,-66.3686,18,2020-10-23T01:10:00.000Z,110,2020-10-23T01:15:53.950Z,44.66242,100,-66.36603000000001,100,12.4,100,12.0,100,12.8,100,0.0,100,3.5,100,,-1,,-1,,-1,,-1,,-1,,-1,,-1,,-1,1026.9,100,20.9,100,13,100,24.1,100,5.0,100,1.0,1,1.9,1,1026.9,1,1026.9,1026.9,20.9,19.8,13,15,24.1,22.7,5.0,4.0
2020-10-23T01:20:00Z,44490,9300300,West Bay of Fundy,0.0,44.66056,-66.3686,18,2020-10-23T01:20:00.000Z,110,2020-10-23T01:22:49.492Z,44.66248,100,-66.36595,100,12.4,100,12.0,100,12.8,100,0.0,100,3.5,100,,-1,,-1,,-1,,-1,,-1,,-1,,-1,,-1,1026.9,100,22.0,100,11,100,25.9,100,5.0,100,2.0,1,1.6,1,1026.9,1,1026.9,1026.9,22.0,20.9,11,13,25.9,24.5,5.0,4.0
2020-10-23T01:30:00Z,44490,9300300,West Bay of Fundy,0.0,44.66056,-66.3686,18,2020-10-23T01:30:00.000Z,110,2020-10-23T01:33:50.969Z,44.66237,100,-66.3658,100,12.4,100,12.0,100,12.8,100,0.0,100,3.5,100,,-1,,-1,,-1,,-1,,-1,,-1,,-1,,-1,1027.1,100,23.4,100,10,100,27.4,100,5.0,100,3.0,1,1.7,1,1027.1,1,1027.1,1027.1,23.4,22.3,10,12,27.4,26.3,5.0,4.0
2020-10-23T01:40:00Z,44490,9300300,West Bay of Fundy,0.0,44.66056,-66.3686,18,2020-10-23T01:40:00.000Z,110,2020-10-23T01:42:57.488Z,44.6624,100,-66.3658,100,12.3,100,12.0,100,12.8,100,0.0,100,3.5,100,,-1,,-1,,-1,,-1,,-1,,-1,,-1,,-1,1027.3,100,24.1,100,11,100,29.5,100,5.0,100,3.0,1,1.7,1,1027.3,1,1027.3,1027.3,24.1,23.4,11,13,29.5,28.4,5.0,4.0
2020-10-23T01:50:00Z,44490,9300300,West Bay of Fundy,0.0,44.66056,-66.3686,18,2020-10-23T01:50:00.000Z,110,2020-10-23T01:52:54.402Z,44.66243,100,-66.36572,100,12.2,100,11.9,100,12.8,100,0.0,100,3.5,100,,-1,,-1,,-1,,-1,,-1,,-1,,-1,,-1,1027.3,100,24.8,100,15,100,28.8,100,5.0,100,3.0,1,1.3,1,1027.3,1,1027.3,1027.3,24.8,23.4,15,17,28.8,27.7,5.0,4.0
2020-10-23T02:00:00Z,44490,9300300,West Bay of Fundy,0.0,44.66056,-66.3686,18,2020-10-23T02:00:00.000Z,108,2020-10-23T02:03:17.504Z,44.66257,100,-66.36588,100,12.1,100,11.9,100,12.8,100,0.0,100,3.5,100,0.3,100,0.7,100,5.4,100,0.4,100,0.5,100,7.4,100,3.6,100,13.3,100,1027.3,100,22.3,100,18,100,28.8,100,5.0,100,3.0,1,1.2,1,1027.3,1,1027.3,1027.3,22.3,21.6,18,21,28.8,27.7,5.0,4.0
2020-10-23T02:10:00Z,44490,9300300,West Bay of Fundy,0.0,44.66056,-66.3686,18,2020-10-23T02:10:00.000Z,110,2020-10-23T02:16:21.851Z,44.6628,100,-66.36625,100,12.1,100,11.9,100,12.8,100,0.0,100,3.5,100,,-1,,-1,,-1,,-1,,-1,,-1,,-1,,-1,1027.2,100,20.5,100,22,100,24.1,100,5.0,100,3.0,1,1.1,1,1027.2,1,1027.2,1027.2,20.5,19.8,22,24,24.1,23.4,5.0,4.0
2020-10-23T02:20:00Z,44490,9300300,West Bay of Fundy,0.0,44.66056,-66.3686,18,2020-10-23T02:20:00.000Z,110,2020-10-23T02:23:23.945Z,44.66295,100,-66.36633,100,12.1,100,11.9,100,12.8,100,0.0,100,3.5,100,,-1,,-1,,-1,,-1,,-1,,-1,,-1,,-1,1027.3,100,20.5,100,22,100,25.9,100,5.0,100,3.0,1,1.3,1,1027.3,1,1027.3,1027.2,20.5,19.8,22,24,25.9,24.8,5.0,4.0
2020-10-23T02:30:00Z,44490,9300300,West Bay of Fundy,0.0,44.66056,-66.3686,18,2020-10-23T02:30:00.000Z,110,2020-10-23T02:33:09.556Z,44.6632,100,-66.3665,100,12.1,100,11.9,100,12.8,100,0.0,100,3.5,100,,-1,,-1,,-1,,-1,,-1,,-1,,-1,,-1,1027.2,100,19.4,100,26,100,23.0,100,5.0,100,1.0,1,1.3,1,1027.2,1,1027.2,1027.2,19.4,18.7,26,28,23.0,22.3,5.0,4.0
2020-10-23T02:40:00Z,44490,9300300,West Bay of Fundy,0.0,44.66056,-66.3686,18,2020-10-23T02:40:00.000Z,110,2020-10-23T02:43:20.378Z,44.66352,100,-66.36683000000001,100,12.1,100,11.9,100,12.7,100,0.0,100,3.5,100,,-1,,-1,,-1,,-1,,-1,,-1,,-1,,-1,1027.3,100,20.5,100,24,100,24.5,100,5.0,100,1.0,1,1.3,1,1027.3,1,1027.3,1027.3,20.5,19.8,24,26,24.5,23.8,5.0,4.0
2020-10-23T02:50:00Z,44490,9300300,West Bay of Fundy,0.0,44.66056,-66.3686,18,2020-10-23T02:50:00.000Z,110,2020-10-23T02:53:26.684Z,44.663779999999996,100,-66.36676999999999,100,12.0,100,11.9,100,12.7,100,0.0,100,3.5,100,,-1,,-1,,-1,,-1,,-1,,-1,,-1,,-1,1027.3,100,20.2,100,27,100,24.5,100,5.0,100,1.0,1,1.3,1,1027.3,1,1027.3,1027.2,20.2,19.4,27,29,24.5,24.1,5.0,4.0
2020-10-23T03:00:00Z,44490,9300300,West Bay of Fundy,0.0,44.66056,-66.3686,18,2020-10-23T03:00:00.000Z,108,2020-10-23T03:03:30.983Z,44.66415,100,-66.3666,100,11.9,100,11.9,100,12.7,100,0.0,100,3.5,100,0.3,100,1.0,100,6.2,100,0.5,100,0.7,100,9.4,100,4.2,100,12.5,100,1027.0,100,18.7,100,37,100,22.0,100,5.0,100,0.0,1,1.0,1,1027.0,1,1027.0,1027.0,18.7,18.0,37,39,22.0,20.9,5.0,4.0
2020-10-23T03:10:00Z,44490,9300300,West Bay of Fundy,0.0,44.66056,-66.3686,18,2020-10-23T03:10:00.000Z,110,2020-10-23T03:16:27.207Z,44.66447,100,-66.36633,100,12.0,100,11.9,100,12.8,100,0.0,100,3.5,100,,-1,,-1,,-1,,-1,,-1,,-1,,-1,,-1,1026.9,100,21.2,100,35,100,26.3,100,5.0,100,0.0,1,0.7,1,1026.9,1,1026.9,1026.8,21.2,20.5,35,38,26.3,25.2,5.0,4.0
2020-10-23T03:20:00Z,44490,9300300,West Bay of Fundy,0.0,44.66056,-66.3686,18,2020-10-23T03:20:00.000Z,110,2020-10-23T03:23:27.674Z,44.66477,100,-66.36605,100,11.9,100,11.9,100,12.8,100,0.0,100,3.5,100,,-1,,-1,,-1,,-1,,-1,,-1,,-1,,-1,1026.9,100,19.8,100,34,100,24.8,100,5.0,100,0.0,1,0.7,1,1026.9,1,1026.9,1026.9,19.8,19.1,34,36,24.8,24.1,5.0,4.0
2020-10-23T03:30:00Z,44490,9300300,West Bay of Fundy,0.0,44.66056,-66.3686,18,2020-10-23T03:30:00.000Z,110,2020-10-23T03:33:26.556Z,44.6651,100,-66.36575,100,11.9,100,12.1,100,12.8,100,0.0,100,3.5,100,,-1,,-1,,-1,,-1,,-1,,-1,,-1,,-1,1026.9,100,22.0,100,31,100,25.6,100,5.0,100,0.0,1,0.5,1,1026.9,1,1026.9,1026.8,22.0,21.2,31,34,25.6,25.2,5.0,4.0
2020-10-23T03:40:00Z,44490,9300300,West Bay of Fundy,0.0,44.66056,-66.3686,18,2020-10-23T03:40:00.000Z,110,2020-10-23T03:43:25.586Z,44.66547,100,-66.36511999999999,100,11.9,100,12.1,100,12.7,100,0.0,100,3.5,100,,-1,,-1,,-1,,-1,,-1,,-1,,-1,,-1,1027.0,100,21.2,100,26,100,24.5,100,5.0,100,0.0,1,0.6,1,1027.0,1,1027.0,1027.0,21.2,20.2,26,29,24.5,23.8,5.0,4.0
2020-10-23T03:50:00Z,44490,9300300,West Bay of Fundy,0.0,44.66056,-66.3686,18,2020-10-23T03:50:00.000Z,110,2020-10-23T03:53:29.022Z,44.66553,100,-66.36462,100,11.8,100,12.1,100,12.7,100,0.0,100,3.5,100,,-1,,-1,,-1,,-1,,-1,,-1,,-1,,-1,1027.2,100,21.6,100,27,100,25.9,100,5.0,100,1.0,1,0.7,1,1027.2,1,1027.2,1027.2,21.6,20.9,27,30,25.9,25.2,5.0,4.0
2020-10-23T04:00:00Z,44490,9300300,West Bay of Fundy,0.0,44.66056,-66.3686,18,2020-10-23T04:00:00.000Z,108,2020-10-23T04:03:38.942Z,44.66558,100,-66.3644,100,11.7,100,12.0,100,12.7,100,0.0,100,3.5,100,0.4,100,1.1,100,6.2,100,0.6,100,0.8,100,8.7,100,4.3,100,13.3,100,1027.4,100,21.2,100,26,100,24.8,100,5.0,100,1.0,1,0.7,1,1027.4,1,1027.4,1027.3,21.2,20.2,26,28,24.8,24.1,5.0,4.0
2020-10-23T04:10:00Z,44490,9300300,West Bay of Fundy,0.0,44.66056,-66.3686,18,2020-10-23T04:10:00.000Z,110,2020-10-23T04:15:49.249Z,44.66557,100,-66.36431999999999,100,11.7,100,12.0,100,12.8,100,0.0,100,3.5,100,,-1,,-1,,-1,,-1,,-1,,-1,,-1,,-1,1027.2,100,19.8,100,30,100,23.4,100,5.0,100,2.0,1,0.3,1,1027.2,1,1027.2,1027.1,19.8,19.1,30,32,23.4,22.7,5.0,4.0
2020-10-23T04:20:00Z,44490,9300300,West Bay of Fundy,0.0,44.66056,-66.3686,18,2020-10-23T04:20:00.000Z,110,2020-10-23T04:22:53.523Z,44.66563,100,-66.36437,100,11.7,100,12.0,100,12.7,100,0.0,100,3.5,100,,-1,,-1,,-1,,-1,,-1,,-1,,-1,,-1,1026.9,100,21.6,100,28,100,26.3,100,5.0,100,0.0,1,0.0,1,1026.9,1,1026.9,1026.9,21.6,20.2,28,31,26.3,24.1,5.0,4.0
2020-10-23T04:30:00Z,44490,9300300,West Bay of Fundy,0.0,44.66056,-66.3686,18,2020-10-23T04:30:00.000Z,110,2020-10-23T04:32:50.960Z,44.66567,100,-66.36431999999999,100,11.6,100,12.0,100,12.7,100,0.0,100,3.5,100,,-1,,-1,,-1,,-1,,-1,,-1,,-1,,-1,1026.9,100,20.9,100,29,100,25.6,100,5.0,100,8.0,1,-0.3,1,1026.9,1,1026.9,1026.8,20.9,19.1,29,31,25.6,25.2,5.0,4.0
2020-10-23T04:40:00Z,44490,9300300,West Bay of Fundy,0.0,44.66056,-66.3686,18,2020-10-23T04:40:00.000Z,110,2020-10-23T04:42:53.216Z,44.66562,100,-66.36407,100,11.6,100,11.9,100,12.7,100,0.0,100,3.5,100,,-1,,-1,,-1,,-1,,-1,,-1,,-1,,-1,1026.8,100,20.2,100,26,100,24.1,100,5.0,100,8.0,1,-0.5,1,1026.8,1,1026.8,1026.8,20.2,19.1,26,28,24.1,24.5,5.0,4.0
2020-10-23T04:50:00Z,44490,9300300,West Bay of Fundy,0.0,44.66056,-66.3686,18,2020-10-23T04:50:00.000Z,110,2020-10-23T04:53:10.464Z,44.66563,100,-66.3641,100,11.6,100,11.9,100,12.7,100,0.0,100,3.5,100,,-1,,-1,,-1,,-1,,-1,,-1,,-1,,-1,1026.8,100,19.4,100,15,100,23.4,100,5.0,100,8.0,1,-0.5,1,1026.8,1,1026.8,1026.8,19.4,19.1,15,17,23.4,23.0,5.0,4.0
2020-10-23T05:00:00Z,44490,9300300,West Bay of Fundy,0.0,44.66056,-66.3686,18,2020-10-23T05:00:00.000Z,108,2020-10-23T05:03:02.344Z,44.66562,100,-66.36399999999999,100,11.6,100,11.9,100,12.7,100,0.0,100,3.5,100,0.4,100,1.0,100,8.5,100,0.6,100,0.8,100,9.5,100,5.4,100,12.5,100,1026.8,100,19.4,100,9,100,24.5,100,5.0,100,8.0,1,-0.5,1,1026.8,1,1026.8,1026.8,19.4,19.1,9,11,24.5,24.1,5.0,4.0
2020-10-23T05:10:00Z,44490,9300300,West Bay of Fundy,0.0,44.66056,-66.3686,18,2020-10-23T05:10:00.000Z,110,2020-10-23T05:15:58.589Z,44.66558,100,-66.36397,100,11.6,100,11.9,100,12.7,100,0.0,100,3.5,100,,-1,,-1,,-1,,-1,,-1,,-1,,-1,,-1,1026.8,100,21.2,100,7,100,26.3,100,5.0,100,7.0,1,-0.4,1,1026.8,1,1026.8,1026.8,21.2,20.9,7,9,26.3,25.9,5.0,4.0
2020-10-23T05:20:00Z,44490,9300300,West Bay of Fundy,0.0,44.66056,-66.3686,18,2020-10-23T05:20:00.000Z,110,2020-10-23T05:23:02.429Z,44.66557,100,-66.3639,100,11.6,100,11.9,100,12.7,100,0.0,100,3.5,100,,-1,,-1,,-1,,-1,,-1,,-1,,-1,,-1,1026.8,100,24.5,100,14,100,28.1,100,5.0,100,6.0,1,-0.4,1,1026.8,1,1026.8,1026.8,24.5,24.1,14,16,28.1,27.7,5.0,4.0
2020-10-23T05:30:00Z,44490,9300300,West Bay of Fundy,0.0,44.66056,-66.3686,18,2020-10-23T05:30:00.000Z,110,2020-10-23T05:33:03.960Z,44.66555,100,-66.36381999999999,100,11.6,100,11.8,100,12.7,100,0.0,100,3.5,100,,-1,,-1,,-1,,-1,,-1,,-1,,-1,,-1,1026.8,100,23.8,100,11,100,27.7,100,5.0,100,6.0,1,-0.5,1,1026.8,1,1026.8,1026.7,23.8,23.0,11,13,27.7,27.4,5.0,4.0
2020-10-23T05:40:00Z,44490,9300300,West Bay of Fundy,0.0,44.66056,-66.3686,18,2020-10-23T05:40:00.000Z,110,2020-10-23T05:43:16.800Z,44.66557,100,-66.36381999999999,100,11.6,100,11.8,100,12.7,100,0.0,100,3.5,100,,-1,,-1,,-1,,-1,,-1,,-1,,-1,,-1,1026.6,100,23.0,100,10,100,27.4,100,5.0,100,7.0,1,-0.7,1,1026.6,1,1026.6,1026.5,23.0,22.3,10,13,27.4,27.0,5.0,4.0
2020-10-23T05:50:00Z,44490,9300300,West Bay of Fundy,0.0,44.66056,-66.3686,18,2020-10-23T05:50:00.000Z,110,2020-10-23T05:53:15.201Z,44.66557,100,-66.3638,100,11.6,100,11.8,100,12.7,100,0.0,100,3.5,100,,-1,,-1,,-1,,-1,,-1,,-1,,-1,,-1,1026.5,100,22.0,100,7,100,25.9,100,5.0,100,8.0,1,-0.8,1,1026.5,1,1026.5,1026.4,22.0,21.2,7,10,25.9,24.8,5.0,4.0
2020-10-23T06:00:00Z,44490,9300300,West Bay of Fundy,0.0,44.66056,-66.3686,18,2020-10-23T06:00:00.000Z,108,2020-10-23T06:03:55.104Z,44.66558,100,-66.36386999999999,100,11.6,100,11.9,100,12.7,100,0.0,100,3.5,100,0.4,100,1.0,100,7.0,100,0.6,100,0.8,100,9.0,100,5.1,100,12.5,100,1026.3,100,24.8,100,11,100,29.9,100,5.0,100,8.0,1,-0.7,1,1026.3,1,1026.3,1026.3,24.8,24.1,11,15,29.9,29.5,5.0,4.0
2020-10-23T06:10:00Z,44490,9300300,West Bay of Fundy,0.0,44.66056,-66.3686,18,2020-10-23T06:10:00.000Z,110,2020-10-23T06:16:29.955Z,44.66558,100,-66.36386999999999,100,11.6,100,11.9,100,12.7,100,0.0,100,3.5,100,,-1,,-1,,-1,,-1,,-1,,-1,,-1,,-1,1026.2,100,23.4,100,14,100,27.7,100,5.0,100,8.0,1,-0.7,1,1026.2,1,1026.2,1026.1,23.4,22.7,14,18,27.7,27.0,5.0,4.0
2020-10-23T06:20:00Z,44490,9300300,West Bay of Fundy,0.0,44.66056,-66.3686,18,2020-10-23T06:20:00.000Z,110,2020-10-23T06:23:25.585Z,44.66557,100,-66.36381999999999,100,11.6,100,12.0,100,12.7,100,0.0,100,3.5,100,,-1,,-1,,-1,,-1,,-1,,-1,,-1,,-1,1026.0,100,24.5,100,16,100,28.8,100,5.0,100,8.0,1,-0.9,1,1026.0,1,1026.0,1026.0,24.5,23.8,16,19,28.8,28.1,5.0,4.0
2020-10-23T06:30:00Z,44490,9300300,West Bay of Fundy,0.0,44.66056,-66.3686,18,2020-10-23T06:30:00.000Z,110,2020-10-23T06:33:27.129Z,44.66548,100,-66.3637,100,11.5,100,12.0,100,12.7,100,0.0,100,3.5,100,,-1,,-1,,-1,,-1,,-1,,-1,,-1,,-1,1026.1,100,23.4,100,18,100,26.6,100,5.0,100,8.0,1,-0.8,1,1026.1,1,1026.1,1026.0,23.4,22.7,18,21,26.6,26.6,5.0,4.0
2020-10-23T06:40:00Z,44490,9300300,West Bay of Fundy,0.0,44.66056,-66.3686,18,2020-10-23T06:40:00.000Z,110,2020-10-23T06:43:34.965Z,44.6656,100,-66.36388000000001,100,11.5,100,11.9,100,12.7,100,0.0,100,3.5,100,,-1,,-1,,-1,,-1,,-1,,-1,,-1,,-1,1026.0,100,22.3,100,27,100,26.3,100,5.0,100,8.0,1,-1.1,1,1026.0,1,1026.0,1025.9,22.3,21.6,27,30,26.3,25.6,5.0,4.0
2020-10-23T06:50:00Z,44490,9300300,West Bay of Fundy,0.0,44.66056,-66.3686,18,2020-10-23T06:50:00.000Z,110,2020-10-23T06:53:35.058Z,44.66555,100,-66.36381999999999,100,11.5,100,11.9,100,12.7,100,0.0,100,3.5,100,,-1,,-1,,-1,,-1,,-1,,-1,,-1,,-1,1025.8,100,22.3,100,30,100,26.6,100,5.0,100,8.0,1,-1.5,1,1025.8,1,1025.8,1025.8,22.3,22.0,30,34,26.6,25.6,5.0,4.0
2020-10-23T07:00:00Z,44490,9300300,West Bay of Fundy,0.0,44.66056,-66.3686,18,2020-10-23T07:00:00.000Z,108,2020-10-23T07:03:32.144Z,44.66557,100,-66.36385,100,11.6,100,11.9,100,12.7,100,0.0,100,3.5,100,0.4,100,1.0,100,6.5,100,0.6,100,0.8,100,7.5,100,4.7,100,11.8,100,1026.0,100,21.6,100,26,100,26.6,100,5.0,100,6.0,1,-1.4,1,1026.0,1,1026.0,1025.9,21.6,21.2,26,30,26.6,25.9,5.0,4.0
2020-10-23T07:10:00Z,44490,9300300,West Bay of Fundy,0.0,44.66056,-66.3686,18,2020-10-23T07:10:00.000Z,110,2020-10-23T07:16:37.199Z,44.66557,100,-66.36383000000001,100,11.7,100,11.9,100,12.7,100,0.0,100,3.5,100,,-1,,-1,,-1,,-1,,-1,,-1,,-1,,-1,1025.8,100,22.0,100,29,100,27.0,100,5.0,100,7.0,1,-1.3,1,1025.8,1,1025.8,1025.8,22.0,21.2,29,33,27.0,26.6,5.0,4.0
2020-10-23T07:20:00Z,44490,9300300,West Bay of Fundy,0.0,44.66056,-66.3686,18,2020-10-23T07:20:00.000Z,110,2020-10-23T07:23:43.081Z,44.66558,100,-66.3638,100,11.8,100,11.9,100,12.7,100,0.0,100,3.5,100,,-1,,-1,,-1,,-1,,-1,,-1,,-1,,-1,1025.8,100,22.0,100,29,100,27.4,100,5.0,100,8.0,1,-1.1,1,1025.8,1,1025.8,1025.8,22.0,21.6,29,32,27.4,26.6,5.0,4.0
2020-10-23T07:30:00Z,44490,9300300,West Bay of Fundy,0.0,44.66056,-66.3686,18,2020-10-23T07:30:00.000Z,110,2020-10-23T07:33:51.513Z,44.6656,100,-66.3639,100,11.8,100,11.9,100,12.7,100,0.0,100,3.5,100,,-1,,-1,,-1,,-1,,-1,,-1,,-1,,-1,1025.9,100,24.5,100,32,100,31.0,100,5.0,100,7.0,1,-1.0,1,1025.9,1,1025.9,1025.9,24.5,24.1,32,36,31.0,29.9,5.0,4.0
2020-10-23T07:40:00Z,44490,9300300,West Bay of Fundy,0.0,44.66056,-66.3686,18,2020-10-23T07:40:00.000Z,110,2020-10-23T07:42:46.298Z,44.66558,100,-66.36388000000001,100,11.7,100,11.9,100,12.7,100,0.0,100,3.5,100,,-1,,-1,,-1,,-1,,-1,,-1,,-1,,-1,1025.7,100,25.9,100,46,100,31.0,100,5.0,100,6.0,1,-1.1,1,1025.7,1,1025.7,1025.7,25.9,25.6,46,50,31.0,31.0,5.0,4.0
2020-10-23T07:50:00Z,44490,9300300,West Bay of Fundy,0.0,44.66056,-66.3686,18,2020-10-23T07:50:00.000Z,110,2020-10-23T07:52:51.333Z,44.66557,100,-66.36385,100,11.7,100,12.0,100,12.7,100,0.0,100,3.5,100,,-1,,-1,,-1,,-1,,-1,,-1,,-1,,-1,1025.7,100,26.3,100,46,100,32.4,100,5.0,100,6.0,1,-1.1,1,1025.7,1,1025.7,1025.7,26.3,25.9,46,49,32.4,32.0,5.0,4.0
2020-10-23T08:00:00Z,44490,9300300,West Bay of Fundy,0.0,44.66056,-66.3686,18,2020-10-23T08:00:00.000Z,108,2020-10-23T08:02:52.068Z,44.66555,100,-66.36386999999999,100,11.7,100,12.0,100,12.7,100,0.0,100,3.5,100,0.4,100,0.8,100,5.4,100,0.6,100,0.7,100,6.2,100,4.3,100,12.5,100,1025.6,100,27.7,100,48,100,33.5,100,5.0,100,7.0,1,-1.2,1,1025.6,1,1025.6,1025.5,27.7,27.4,48,52,33.5,32.8,5.0,4.0
2020-10-23T08:10:00Z,44490,9300300,West Bay of Fundy,0.0,44.66056,-66.3686,18,2020-10-23T08:10:00.000Z,110,2020-10-23T08:16:53.482Z,44.66552,100,-66.36381999999999,100,11.7,100,12.0,100,12.7,100,0.0,100,3.5,100,,-1,,-1,,-1,,-1,,-1,,-1,,-1,,-1,1025.6,100,27.0,100,51,100,33.5,100,5.0,100,6.0,1,-1.2,1,1025.6,1,1025.6,1025.5,27.0,27.0,51,55,33.5,32.4,5.0,4.0
2020-10-23T08:20:00Z,44490,9300300,West Bay of Fundy,0.0,44.66056,-66.3686,18,2020-10-23T08:20:00.000Z,110,2020-10-23T08:22:51.447Z,44.66548,100,-66.36375,100,11.7,100,12.0,100,12.7,100,0.0,100,3.5,100,,-1,,-1,,-1,,-1,,-1,,-1,,-1,,-1,1025.6,100,25.6,100,55,100,29.9,100,5.0,100,6.0,1,-1.2,1,1025.6,1,1025.6,1025.6,25.6,25.2,55,59,29.9,29.2,5.0,4.0
2020-10-23T08:30:00Z,44490,9300300,West Bay of Fundy,0.0,44.66056,-66.3686,18,2020-10-23T08:30:00.000Z,110,2020-10-23T08:33:57.454Z,44.66537,100,-66.36358,100,11.7,100,11.9,100,12.7,100,0.0,100,3.5,100,,-1,,-1,,-1,,-1,,-1,,-1,,-1,,-1,1025.7,100,24.8,100,54,100,29.9,100,5.0,100,6.0,1,-1.1,1,1025.7,1,1025.7,1025.7,24.8,24.8,54,58,29.9,29.5,5.0,4.0
2020-10-23T08:40:00Z,44490,9300300,West Bay of Fundy,0.0,44.66056,-66.3686,18,2020-10-23T08:40:00.000Z,110,2020-10-23T08:42:55.046Z,44.6653,100,-66.36345,100,11.7,100,11.9,100,12.7,100,0.0,100,3.5,100,,-1,,-1,,-1,,-1,,-1,,-1,,-1,,-1,1025.7,100,25.2,100,58,100,30.6,100,5.0,100,6.0,1,-0.9,1,1025.7,1,1025.7,1025.7,25.2,24.8,58,62,30.6,29.9,5.0,4.0
2020-10-23T08:50:00Z,44490,9300300,West Bay of Fundy,0.0,44.66056,-66.3686,18,2020-10-23T08:50:00.000Z,110,2020-10-23T08:53:05.364Z,44.66518,100,-66.36333,100,11.7,100,11.9,100,12.7,100,0.0,100,3.5,100,,-1,,-1,,-1,,-1,,-1,,-1,,-1,,-1,1025.6,100,28.8,100,68,100,34.9,100,5.0,100,6.0,1,-0.9,1,1025.6,1,1025.6,1025.6,28.8,28.4,68,72,34.9,34.6,5.0,4.0
2020-10-23T09:00:00Z,44490,9300300,West Bay of Fundy,0.0,44.66056,-66.3686,18,2020-10-23T09:00:00.000Z,108,2020-10-23T09:03:16.999Z,44.66507,100,-66.36327,100,11.6,100,11.9,100,12.7,100,0.0,100,3.5,100,0.4,100,1.2,100,4.6,100,0.7,100,0.8,100,4.2,100,4.0,100,3.9,100,1025.7,100,26.3,100,68,100,32.0,100,5.0,100,5.0,1,-0.6,1,1025.7,1,1025.7,1025.7,26.3,25.9,68,71,32.0,31.7,5.0,4.0
2020-10-23T09:10:00Z,44490,9300300,West Bay of Fundy,0.0,44.66056,-66.3686,18,2020-10-23T09:10:00.000Z,110,2020-10-23T09:16:12.994Z,44.66492,100,-66.36327,100,11.6,100,11.9,100,12.7,100,0.0,100,3.5,100,,-1,,-1,,-1,,-1,,-1,,-1,,-1,,-1,1025.8,100,27.7,100,64,100,33.1,100,5.0,100,5.0,1,-0.4,1,1025.8,1,1025.8,1025.8,27.7,27.4,64,67,33.1,33.1,5.0,4.0
2020-10-23T09:20:00Z,44490,9300300,West Bay of Fundy,0.0,44.66056,-66.3686,18,2020-10-23T09:20:00.000Z,110,2020-10-23T09:23:13.908Z,44.66472,100,-66.36325,100,11.5,100,11.9,100,12.7,100,0.0,100,3.5,100,,-1,,-1,,-1,,-1,,-1,,-1,,-1,,-1,1025.9,100,25.9,100,69,100,31.0,100,5.0,100,5.0,1,-0.1,1,1025.9,1,1025.9,1025.9,25.9,25.9,69,73,31.0,30.6,5.0,4.0
2020-10-23T09:30:00Z,44490,9300300,West Bay of Fundy,0.0,44.66056,-66.3686,18,2020-10-23T09:30:00.000Z,110,2020-10-23T09:33:16.022Z,44.66443,100,-66.36322,100,11.6,100,11.9,100,12.7,100,0.0,100,3.5,100,,-1,,-1,,-1,,-1,,-1,,-1,,-1,,-1,1026.1,100,24.5,100,70,100,29.9,100,5.0,100,5.0,1,0.1,1,1026.1,1,1026.1,1026.1,24.5,24.1,70,73,29.9,29.9,5.0,4.0
2020-10-23T09:40:00Z,44490,9300300,West Bay of Fundy,0.0,44.66056,-66.3686,18,2020-10-23T09:40:00.000Z,110,2020-10-23T09:43:23.319Z,44.66402,100,-66.36315,100,11.5,100,11.9,100,12.6,100,0.0,100,3.5,100,,-1,,-1,,-1,,-1,,-1,,-1,,-1,,-1,1026.4,100,24.5,100,75,100,28.8,100,5.0,100,3.0,1,0.4,1,1026.4,1,1026.4,1026.4,24.5,23.8,75,78,28.8,27.7,5.0,4.0
2020-10-23T09:50:00Z,44490,9300300,West Bay of Fundy,0.0,44.66056,-66.3686,18,2020-10-23T09:50:00.000Z,110,2020-10-23T09:53:21.994Z,44.66347,100,-66.36343000000001,100,11.4,100,11.9,100,12.6,100,0.0,100,3.5,100,,-1,,-1,,-1,,-1,,-1,,-1,,-1,,-1,1026.6,100,24.5,100,76,100,29.2,100,5.0,100,3.0,1,0.9,1,1026.6,1,1026.6,1026.6,24.5,23.4,76,78,29.2,28.1,5.0,4.0
2020-10-23T10:00:00Z,44490,9300300,West Bay of Fundy,0.0,44.66056,-66.3686,18,2020-10-23T10:00:00.000Z,108,2020-10-23T10:03:29.699Z,44.66298,100,-66.36372,100,11.3,100,11.9,100,12.6,100,0.0,100,3.5,100,0.5,100,1.2,100,4.1,100,0.7,100,0.9,100,4.0,100,3.6,100,3.6,100,1026.6,100,25.2,100,80,100,30.2,100,5.0,100,3.0,1,0.6,1,1026.6,1,1026.6,1026.5,25.2,24.5,80,83,30.2,29.2,5.0,4.0
2020-10-23T10:10:00Z,44490,9300300,West Bay of Fundy,0.0,44.66056,-66.3686,18,2020-10-23T10:10:00.000Z,110,2020-10-23T10:16:32.307Z,44.66255,100,-66.36445,100,11.1,100,11.9,100,12.7,100,0.0,100,3.5,100,,-1,,-1,,-1,,-1,,-1,,-1,,-1,,-1,1026.6,100,26.6,100,80,100,31.7,100,5.0,100,3.0,1,0.8,1,1026.6,1,1026.6,1026.6,26.6,26.6,80,83,31.7,31.3,5.0,4.0